Location: *
(48.4333°N, 5.0333°W)
Time: 02:09:44
(UTC+00:00)

X-37B - Visible Passes

Search period start: 31 July 2021 00:00
Search period end: 10 August 2021 00:00
Orbit: 383 x 392 km, 45.0° (Epoch: 01 July)

Date Brightness Start Highest point End Pass type
(mag) Time Alt. Az. Time Alt. Az. Time Alt. Az.
02 Aug 2.4 04:07:58 10° SSW 04:10:26 21° SSE 04:12:56 10° ESE visible
03 Aug 2.8 03:11:51 14° SSE 03:12:18 14° SSE 03:14:07 10° ESE visible
04 Aug 1.8 03:48:15 16° SW 03:50:09 29° SSE 03:52:59 10° E visible
05 Aug 2.4 02:52:22 20° SE 02:52:22 20° SE 02:54:27 10° ESE visible
06 Aug 1.3 03:28:45 26° SSW 03:29:55 37° SSE 03:32:54 10° E visible
07 Aug 2.4 02:32:54 22° ESE 02:32:54 22° ESE 02:34:30 10° E visible
07 Aug 1.0 04:05:11 12° WSW 04:07:59 45° S 04:11:05 10° ESE visible
08 Aug 1.0 03:09:22 41° SSW 03:09:42 43° S 03:12:46 10° ESE visible
09 Aug 3.0 02:13:39 16° ESE 02:13:39 16° ESE 02:14:25 10° E visible
09 Aug 1.0 03:45:55 20° WSW 03:47:48 42° S 03:50:51 10° ESE visible
